| time (UTC) | temp C | wind direction | speed KPH | gust KPH | rain 1hr cm | rain 24hr cm | rain mn cm | humidity % | barometer mb |
| 20260503004601 | 19 | 9 | 4.8 | 9.7 | 0.00 | 1.45 | 1.35 | 52 | 1017.9 |
| 20260503003101 | 20 | 5 | 4.8 | 12.9 | 0.00 | 1.45 | 1.35 | 50 | 1017.9 |
| 20260503001602 | 20 | 350 | 6.4 | 14.5 | 0.00 | 1.45 | 1.35 | 48 | 1017.6 |
| 20260503000053 | 21 | 9 | 8.0 | 17.7 | 0.00 | 1.45 | 1.35 | 48 | 1017.4 |
| 20260502234555 | 21 | 11 | 9.7 | 20.9 | 0.00 | 1.52 | 1.35 | 46 | 1017.1 |
| 20260502233053 | 21 | 16 | 12.9 | 19.3 | 0.00 | 1.52 | 1.35 | 45 | 1017.0 |
| 20260502231557 | 22 | 355 | 11.3 | 22.5 | 0.00 | 1.52 | 1.35 | 45 | 1016.8 |
| 20260502230052 | 22 | 350 | 14.5 | 25.7 | 0.00 | 1.52 | 1.35 | 44 | 1016.7 |
| 20260502224555 | 22 | 340 | 9.7 | 24.1 | 0.00 | 1.65 | 1.35 | 44 | 1016.6 |
| 20260502223051 | 22 | 355 | 17.7 | 30.6 | 0.00 | 1.65 | 1.35 | 44 | 1016.3 |
| 20260502221549 | 22 | 9 | 16.1 | 29.0 | 0.00 | 1.65 | 1.35 | 47 | 1016.2 |
| 20260502220128 | 22 | 47 | 14.5 | 27.4 | 0.00 | 1.65 | 1.35 | 48 | 1016.1 |
| 20260502214549 | 22 | 34 | 17.7 | 27.4 | 0.00 | 1.68 | 1.35 | 45 | 1016.3 |
| 20260502213048 | 22 | 324 | 12.9 | 29.0 | 0.00 | 1.68 | 1.35 | 43 | 1016.4 |
| 20260502211548 | 22 | 14 | 16.1 | 29.0 | 0.00 | 1.68 | 1.35 | 44 | 1016.3 |
| 20260502210054 | 22 | 355 | 22.5 | 33.8 | 0.00 | 1.68 | 1.35 | 46 | 1016.3 |
| 20260502204555 | 22 | 34 | 16.1 | 32.2 | 0.00 | 2.08 | 1.35 | 49 | 1016.4 |
| 20260502203058 | 22 | 13 | 14.5 | 29.0 | 0.00 | 2.08 | 1.35 | 54 | 1016.5 |
| 20260502201544 | 22 | 14 | 17.7 | 25.7 | 0.00 | 2.08 | 1.35 | 55 | 1016.5 |
| 20260502200040 | 22 | 355 | 19.3 | 33.8 | 0.00 | 2.08 | 1.35 | 58 | 1016.6 |
| 20260502194544 | 22 | 13 | 12.9 | 40.2 | 0.00 | 3.96 | 1.35 | 59 | 1016.6 |
| 20260502193039 | 22 | 345 | 17.7 | 27.4 | 0.00 | 3.96 | 1.35 | 60 | 1016.7 |
| 20260502191542 | 22 | 44 | 17.7 | 25.7 | 0.00 | 3.96 | 1.35 | 61 | 1016.9 |
| 20260502190037 | 22 | 43 | 12.9 | 25.7 | 0.00 | 3.96 | 1.35 | 61 | 1016.7 |
| 20260502184540 | 22 | 28 | 11.3 | 30.6 | 0.00 | 6.05 | 1.35 | 59 | 1016.8 |
| 20260502183035 | 21 | 15 | 9.7 | 25.7 | 0.00 | 6.05 | 1.35 | 64 | 1016.7 |
| 20260502181536 | 21 | 105 | 11.3 | 30.6 | 0.00 | 6.05 | 1.35 | 63 | 1016.7 |
| 20260502163040 | 19 | 28 | 17.7 | 24.1 | 0.00 | 6.05 | 1.35 | 69 | 1017.8 |
| 20260502161516 | 18 | 82 | 12.9 | 25.7 | 0.00 | 6.05 | 1.35 | 72 | 1017.9 |
| 20260502151506 | 16 | 11 | 16.1 | 27.4 | 0.00 | 6.05 | 1.35 | 80 | 1017.4 |
| 20260502123054 | 12 | 61 | 8.0 | 24.1 | 0.00 | 6.05 | 1.35 | 89 | 1015.8 |
| 20260502121546 | 12 | 37 | 9.7 | 24.1 | 0.00 | 6.05 | 1.35 | 89 | 1015.6 |
| 20260502114546 | 12 | 11 | 11.3 | 22.5 | 0.00 | 6.05 | 1.35 | 93 | 1015.2 |
| 20260502113037 | 12 | 17 | 12.9 | 25.7 | 0.00 | 6.05 | 1.35 | 94 | 1014.9 |
| 20260502111536 | 12 | 18 | 19.3 | 29.0 | 0.00 | 6.05 | 1.35 | 94 | 1014.8 |
| 20260502110035 | 12 | 39 | 12.9 | 27.4 | 0.00 | 6.05 | 1.35 | 95 | 1014.7 |
| 20260502104533 | 12 | 20 | 14.5 | 22.5 | 0.00 | 6.05 | 1.35 | 94 | 1014.4 |
| 20260502103032 | 12 | 5 | 12.9 | 20.9 | 0.00 | 6.05 | 1.35 | 94 | 1014.3 |
| 20260502101531 | 12 | 360 | 14.5 | 24.1 | 0.00 | 6.05 | 1.35 | 94 | 1014.1 |
| 20260502091525 | 12 | 36 | 12.9 | 25.7 | 0.05 | 6.05 | 1.35 | 94 | 1013.8 |
| 20260502071512 | 12 | 14 | 14.5 | 22.5 | 0.91 | 5.94 | 1.24 | 95 | 1013.2 |
| 20260502070009 | 12 | 20 | 9.7 | 17.7 | 0.89 | 5.87 | 1.19 | 95 | 1014.0 |
| 20260502064514 | 12 | 5 | 11.3 | 17.7 | 0.89 | 5.82 | 1.14 | 94 | 1014.1 |
| 20260502063003 | 13 | 351 | 6.4 | 19.3 | 0.58 | 5.46 | 0.76 | 94 | 1014.2 |
| 20260502061601 | 13 | 17 | 14.5 | 24.1 | 0.15 | 5.03 | 0.33 | 94 | 1012.9 |
| 20260502060101 | 13 | 15 | 16.1 | 25.7 | 0.30 | 5.00 | 0.30 | 94 | 1013.1 |
| 20260502054558 | 14 | 22 | 17.7 | 29.0 | 0.30 | 4.95 | 0.25 | 94 | 1013.2 |
| 20260502053053 | 14 | 12 | 11.3 | 20.9 | 0.23 | 4.88 | 0.18 | 94 | 1013.4 |
| 20260502051549 | 14 | 17 | 11.3 | 24.1 | 0.23 | 4.88 | 0.18 | 94 | 1013.3 |
| 20260502050045 | 15 | 34 | 8.0 | 17.7 | 0.08 | 4.70 | 0.00 | 94 | 1013.2 |
| 20260502044551 | 15 | 59 | 4.8 | 25.7 | 0.05 | 4.65 | 4.65 | 94 | 1013.6 |
| 20260502043050 | 16 | 48 | 3.2 | 20.9 | 0.05 | 4.65 | 4.65 | 94 | 1012.8 |
| 20260502041547 | 16 | 43 | 4.8 | 17.7 | 0.03 | 4.62 | 4.62 | 94 | 1012.6 |
| 20260502040042 | 16 | 57 | 1.6 | 9.7 | 0.05 | 4.62 | 4.62 | 94 | 1012.3 |
| 20260502034541 | 16 | 57 | 6.4 | 17.7 | 0.03 | 4.60 | 4.60 | 94 | 1012.1 |
| 20260502033041 | 16 | 52 | 4.8 | 17.7 | 0.03 | 4.60 | 4.60 | 94 | 1012.1 |
| 20260502031539 | 16 | 51 | 4.8 | 9.7 | 0.03 | 4.60 | 4.60 | 94 | 1012.3 |
| 20260502030040 | 15 | 140 | 4.8 | 17.7 | 0.00 | 4.57 | 4.57 | 94 | 1012.5 |
| 20260502024541 | 15 | 95 | 3.2 | 16.1 | 0.00 | 4.57 | 4.57 | 94 | 1012.3 |
| 20260502023037 | 15 | 80 | 11.3 | 17.7 | 0.00 | 4.57 | 4.57 | 94 | 1012.0 |
| 20260502021540 | 15 | 102 | 8.0 | 19.3 | 0.00 | 4.57 | 4.57 | 94 | 1011.4 |
| 20260502020042 | 15 | 115 | 6.4 | 16.1 | 0.00 | 4.57 | 4.57 | 95 | 1011.7 |
| 20260502014550 | 15 | 45 | 3.2 | 12.9 | 0.00 | 4.57 | 4.57 | 94 | 1011.2 |
| 20260502013035 | 14 | 87 | 6.4 | 19.3 | 0.00 | 4.57 | 4.57 | 94 | 1011.2 |
| 20260502011543 | 14 | 40 | 6.4 | 17.7 | 0.00 | 4.57 | 4.57 | 94 | 1010.9 |
| 20260502010033 | 14 | 136 | 8.0 | 20.9 | 0.00 | 4.57 | 4.57 | 93 | 1011.4 |